Location: Newark
(35.0033°N, 81.0878°W)
Time: 07:43:02
(UTC+00:00)

SRMSAT - Visible Passes

Search period start: 16 October 2019 00:00
Search period end: 26 October 2019 00:00
Orbit: 848 x 866 km, 20.0° (Epoch: 14 October)

Date Brightness Start Highest point End Pass type
(mag) Time Alt. Az. Time Alt. Az. Time Alt. Az.
16 Oct ? 09:35:40 12° S 09:37:35 14° S 09:40:28 10° SE visible
17 Oct ? 09:23:39 14° S 09:24:31 15° S 09:27:40 10° SE visible
18 Oct ? 09:11:37 16° S 09:11:37 16° S 09:14:49 10° SE visible
18 Oct ? 10:56:01 10° SW 10:59:53 18° S 11:03:44 10° SE visible
19 Oct ? 08:59:34 15° SSE 08:59:34 15° SSE 09:01:55 10° SE visible
19 Oct ? 10:43:00 10° SW 10:46:49 18° S 10:50:37 10° SE visible
20 Oct ? 08:47:30 14° SSE 08:47:30 14° SSE 08:48:59 10° SE visible
20 Oct ? 10:30:01 10° SW 10:33:45 17° S 10:37:30 10° SE visible
21 Oct ? 08:35:25 12° SE 08:35:25 12° SE 08:36:01 10° SE visible
21 Oct ? 10:17:25 11° SW 10:20:41 17° S 10:24:20 10° SSE visible
22 Oct ? 10:05:20 13° SSW 10:07:37 16° S 10:11:08 10° SSE visible
23 Oct ? 09:53:16 14° SSW 09:54:34 15° S 09:57:54 10° SSE visible
24 Oct ? 09:41:12 15° SSW 09:41:29 15° S 09:44:38 10° SSE visible
25 Oct ? 09:29:09 13° S 09:29:09 13° S 09:31:18 10° SSE visible
